OneWeb SL0545

operational
NORAD ID: 54647 Int'l Des: 2022-166 Owner: ONEWEBN Country: UK Constellation: oneweb
LEOCIRCULARPOLARONEWEB_TYPE

Über OneWeb SL0545

Beschreibung wird geladen...

Live-Position

3D-Globus wird geladen...

Nächste Überflüge

Höhenverlauf

Altitude vs Time

uPlot chart will show altitude changes over time

Zweizeiliger Elementsatz

1 54647U 22166F 25298.98578250 .00000005 00000-0 -19330-4 0 9999
2 54647 87.9166 290.7133 0001411 91.6699 268.4597 13.21824544140568
Epoch: 25. Okt. 2025 • Age: 10 hours

Aktueller Status

Höhe 1196.9 km
Geschwindigkeit 7.25 km/s
Subsatellitenpunkt -47.40°S, 70.47°W
Startdatum 8. Dez. 2022
Alter 2.8 years
Typ internet

Technische Details

Klassifizierung Payload
Masse 148.00 kg
Trockenmasse 140.00 kg
Gesamtmasse 148.00 kg
Länge 1.30 m
Durchmesser 1.00 m
Spannweite 5.00 m
Form Trapezoid+2 pan
Hersteller ONEWUS
Bus-Typ ARROW
Phasenstatus In Orbit
Besitzer/Staat ONEWEBN/UK

Große Konstellationen

Loading constellations...